Flag for Canada Weather past 2 weeks in Kawartha Lakes, Ontario, Canada

Now
66 °F

Mild.


Feels Like: 66 °F
Forecast: 56 / 68 °F
Wind: 7 mph from Northeast

Location: Lagoon City

Current Time: Jul 28, 2014 at 1:54:29 AM

Latest Report: Jul 28, 2014 at 1:00 AM


Visibility: N/A

Pressure: 29.65 "Hg

Humidity: 85%

Dew point: 61 °F

Location of Kawartha LakesLocation

Historic Weather in Kawartha Lakes — Graph

°F

Kawartha Lakes temperature yesterday

Maximum temperature yesterday: 75 °F (at 5:00 PM)
Minimum temperature yesterday: 65 °F (at 8:00 AM)
Average temperature yesterday: 69 °F

Past Weeks' High & Low Weather Summary

 TemperatureHumidityPressure
High79 °F (Jul 22, 7:00 PM)98% (Jul 20, 3:00 AM)30.24 "Hg (Jul 20, 3:00 AM)
Low52 °F (Jul 18, 5:00 AM)31% (Jul 18, 7:00 PM)29.62 "Hg (Jul 27, 8:00 PM)
Average66 °F72%29.94 "Hg
* Reported Midnight between Jul 12 and Jul 13 — Midnight between Jul 27 and Jul 28, Kawartha Lakes, Weather by CustomWeather, © 2014

Note: Actual official high and low records may vary slightly from our data, if they occured in-between our weather recording intervals... More about our weather records

Advertising

Kawartha Lakes weather history for previous 24 hours

 ConditionsComfort  
Time TempWeatherWind HumidityBarometerVisibility
12:00 AM
Jul 28
66 °FMild.5 mph86%29.65 "HgN/A
11:00 PM
Jul 27
67 °FMild.3 mph81%29.66 "HgN/A
10:00 PM68 °FMild.6 mph76%29.64 "HgN/A
9:00 PM69 °FMild.9 mph76%29.63 "HgN/A
8:00 PM72 °FMild.7 mph70%29.62 "HgN/A
7:00 PM75 °FMild.9 mph59%29.64 "HgN/A
6:00 PM75 °FMild.12 mph62%29.63 "HgN/A
5:00 PM75 °FMild.7 mph63%29.63 "HgN/A
4:00 PM74 °FMild.1 mph62%29.64 "HgN/A
3:00 PM71 °FMild.8 mph73%29.67 "HgN/A
2:00 PM71 °FMild.9 mph72%29.68 "HgN/A
1:00 PM70 °FMild.9 mph72%29.68 "HgN/A
12:00 PM69 °FMild.8 mph72%29.68 "HgN/A
11:00 AM68 °FMild.10 mph78%29.68 "HgN/A
10:00 AM67 °FMild.14 mph83%29.67 "HgN/A
9:00 AM65 °FMild.15 mph86%29.67 "HgN/A
8:00 AM65 °FMild.20 mph91%29.67 "HgN/A
7:00 AM65 °FMild.23 mph89%29.66 "HgN/A
6:00 AM67 °FMild.16 mph89%29.65 "HgN/A
5:00 AM67 °FMild.7 mph88%29.64 "HgN/A
4:00 AM66 °FMild.8 mph90%29.65 "HgN/A
3:00 AM67 °FMild.15 mph90%29.66 "HgN/A
2:00 AM65 °FMild.9 mph91%29.69 "HgN/A
1:00 AM65 °FMild.6 mph92%29.72 "HgN/A
Weather by CustomWeather, © 2014

See weather overviewHow to use our weather pages